Regional Weather Roundup
Issued by NWS

Home | Current Version | Previous Version | Text Only | Print | Product List | Glossary On
Versions: 1 2 3 4 5 6 7 8 9 10 11 12 13 14 15 16 17 18 19 20 21 22 23 24 25 26 27 28 29 30 31 32 33 34 35 36 37 38 39 40 41 42 43 44 45 46 47 48 49 50
000
ASUS44 KJAN 280303
RWRMS

MISSISSIPPI HOURLY WEATHER ROUNDUP
NATIONAL WEATHER SERVICE JACKSON MS
1000 PM CDT WED JUL 27 2016

NOTE: "FAIR: INDICATES FEW OR NO CLOUDS BELOW 12,000 FEET WITH NO
SIGNIFICANT WEATHER AND/OR OBSTRUCTIONS TO VISIBILITY.

MSZ001>002-007>008-010>013-018>021-025>028-034>036-280400-
NORTHWEST MISSISSIPPI

CITY           SKY/WX    TMP DP  RH WIND       PRES   REMARKS
CLEVELAND      FAIR      74  74 100 W8        29.93R
GREENWOOD      CLOUDY    76  72  87 SW9       29.94R
GREENVILLE     CLOUDY    76  73  91 SW8       29.94R
OXFORD         LGT RAIN  75  73  94 S7        29.95S
WINONA         FAIR      76  74  93 S7        29.94R
$$

MSZ003>006-009-014>017-022>024-029>033-037>039-280400-
NORTHEAST MISSISSIPPI

CITY           SKY/WX    TMP DP  RH WIND       PRES   REMARKS
ABERDEEN       FAIR      79  61  53 S6        29.96R
COLUMBUS AFB   CLOUDY    77  76  95 S6        29.96R
GOLDN TRIANGLE MOCLDY    75  70  83 S7        29.96R
TUPELO         PTCLDY    78  73  84 S6        29.95R
$$

MSZ040-058-280400-
CENTRAL MISSISSIPPI

CITY           SKY/WX    TMP DP  RH WIND       PRES   REMARKS
JACKSON INTL   CLOUDY    76  73  91 S8        29.99R
JACKSON HAWKNS CLOUDY    75  73  93 S6        30.00R
MADISON        CLOUDY    73  72  94 S6        29.99R
MERIDIAN KEY   MOCLDY    76  73  91 S7        30.01R
MERIDIAN NAS   MOCLDY    77  71  82 VRB3      30.01R
VICKSBURG VKS  CLOUDY    77  75  94 S6        29.98R
$$

MSZ059>079-280400-
SOUTH MISSISSIPPI

CITY           SKY/WX    TMP DP  RH WIND       PRES   REMARKS
COLUMBIA       FAIR      75  73  94 S5        30.05R
HATTIESBURG    MOCLDY    77  73  87 S6        30.02R
MCCOMB         PTCLDY    75  72  90 S5        30.03R
NATCHEZ        CLOUDY    75  72  88 S7        30.00R
PINE BELT      PTCLDY    75  70  83 S6        30.03R
$$

MSZ080>082-280400-
COASTAL MISSISSIPPI

CITY           SKY/WX    TMP DP  RH WIND       PRES   REMARKS
BILOXI         CLEAR     80  75  85 SW3       30.01S
PASCAGOULA     CLEAR     76  76 100 CALM      30.03R
GULFPORT       CLEAR     78  74  87 CALM      30.01S
$$

LAZ007>009-015>016-023>026-280400-
NORTHEAST LOUISIANA

CITY           SKY/WX    TMP DP  RH WIND       PRES   REMARKS
BASTROP        FAIR      76  74  93 S5        29.97R
TALLULAH/VBURG CLOUDY    76  73  91 S3        29.97R
VIDALIA        FAIR      76  73  91 S6        30.01S
$$



USA.gov is the U.S. government's official web portal to all federal, state and local government web resources and services.